EW9536 Weather Reports


Display with metric or nautical units.
time (UTC)temp
F
wind
direction
speed
MPH
gust
MPH
rain 1hr
in
rain 24hr
in
rain mn
in
humidity
%
barometer
mb
20260510074517 55 0.0 2.0 0.00 0.43 0.00 92 1012.7
20260510073517 54 0.0 2.0 0.00 0.43 0.00 93 1012.7
20260510072518 53 23 2.0 3.0 0.00 0.43 0.00 95 1012.6
20260510071517 52 23 2.0 3.0 0.00 0.43 0.00 97 1012.6
20260510070517 51 0 1.0 2.0 0.00 0.43 0.00 97 1012.4
20260510065537 50 315 1.0 2.0 0.00 0.43 0.00 96 1012.3
20260510064558 49 0.0 1.0 0.00 0.43 0.00 97 1012.3
20260510063517 49 0.0 1.0 0.00 0.43 0.00 96 1012.2
20260510062517 49 225 1.0 4.0 0.00 0.43 0.00 97 1012.2
20260510061517 48 225 1.0 3.0 0.00 0.43 0.00 96 1012.2
20260510060517 48 203 2.0 3.0 0.00 0.43 0.00 97 1012.2
20260510055517 48 0.0 2.0 0.00 0.43 0.00 97 1012.1
20260510054518 47 225 1.0 2.0 0.00 0.43 0.00 97 1011.9
20260510053517 46 270 1.0 2.0 0.00 0.43 0.00 96 1011.9
20260510052517 46 293 1.0 3.0 0.00 0.43 0.00 96 1011.9
20260510051517 46 270 1.0 3.0 0.00 0.43 0.00 96 1011.9
20260510050517 46 270 1.0 3.0 0.00 0.43 0.00 95 1011.9
20260510045516 47 270 1.0 1.0 0.00 0.43 0.00 96 1011.8
20260510044517 47 270 1.0 2.0 0.00 0.43 0.00 96 1011.8
20260510043517 47 293 1.0 2.0 0.00 0.43 0.00 96 1012.0
20260510042516 47 270 2.0 3.0 0.00 0.43 0.00 96 1012.2
20260510041516 47 293 2.0 4.0 0.00 0.43 0.00 96 1012.1
20260510040516 47 270 1.0 3.0 0.00 0.43 0.00 96 1012.0
20260510035517 48 293 2.0 6.0 0.00 0.43 0.00 96 1012.1
20260510034537 48 293 2.0 3.0 0.00 0.43 0.00 96 1012.1
20260510033517 48 270 2.0 5.0 0.00 0.43 0.00 96 1012.2
20260510032517 48 270 2.0 3.0 0.00 0.43 0.00 96 1012.2
20260510031517 48 293 2.0 4.0 0.00 0.43 0.00 96 1012.3
20260510030517 48 270 2.0 3.0 0.00 0.43 0.00 96 1012.3
20260510025517 48 0.0 2.0 0.00 0.43 0.00 96 1012.2
20260510024537 48 270 1.0 2.0 0.00 0.43 0.00 95 1012.3
20260510023517 48 270 2.0 4.0 0.00 0.43 0.00 96 1012.4
20260510022517 48 0.0 2.0 0.00 0.43 0.00 96 1012.5
20260510021517 48 270 1.0 3.0 0.00 0.43 0.00 96 1012.6
20260510020516 48 293 2.0 3.0 0.00 0.43 0.00 95 1012.5
20260510015516 49 293 1.0 3.0 0.00 0.43 0.00 95 1012.5
20260510014517 49 315 1.0 3.0 0.00 0.43 0.00 96 1012.5
20260510013517 49 293 1.0 3.0 0.00 0.43 0.00 96 1012.6
20260510012537 50 270 1.0 3.0 0.00 0.43 0.00 96 1012.6
20260510011516 50 270 3.0 6.0 0.00 0.43 0.00 96 1012.6
20260510010516 50 293 2.0 4.0 0.00 0.43 0.00 96 1012.5
20260510005516 50 270 1.0 2.0 0.00 0.43 0.00 96 1012.5
20260510004537 50 0.0 2.0 0.00 0.43 0.00 96 1012.6
20260510003516 50 270 2.0 3.0 0.00 0.43 0.00 96 1012.8
20260510002516 50 270 1.0 3.0 0.00 0.43 0.00 96 1012.8
20260510001516 50 270 2.0 4.0 0.00 0.43 0.00 96 1012.8
20260510000517 50 293 2.0 3.0 0.00 0.43 0.00 95 1012.9
20260509235538 51 293 3.0 6.0 0.00 0.43 0.43 95 1013.1
20260509234518 51 315 2.0 3.0 0.00 0.43 0.43 95 1013.2
20260509233537 51 293 3.0 4.0 0.00 0.43 0.43 95 1013.3
20260509232517 51 293 3.0 5.0 0.00 0.43 0.43 95 1013.5
20260509231517 51 293 2.0 3.0 0.00 0.43 0.43 95 1013.4
20260509230517 52 225 1.0 2.0 0.00 0.43 0.43 93 1013.4
20260509225557 52 338 1.0 2.0 0.00 0.43 0.43 95 1013.3
20260509224517 53 270 2.0 3.0 0.00 0.43 0.43 95 1013.5
20260509223538 53 270 1.0 2.0 0.00 0.43 0.43 95 1013.5
20260509222517 53 293 2.0 3.0 0.00 0.43 0.43 95 1013.5
20260509221517 53 270 1.0 2.0 0.00 0.43 0.43 95 1013.4
20260509220517 54 248 2.0 3.0 0.00 0.43 0.43 95 1013.5
20260509215517 54 270 1.0 2.0 0.00 0.43 0.43 95 1013.4
20260509214516 54 315 1.0 2.0 0.00 0.43 0.43 95 1013.3
20260509213517 54 0.0 1.0 0.00 0.43 0.43 95 1013.4
20260509212517 54 293 1.0 2.0 0.00 0.43 0.43 95 1013.4
20260509211537 54 293 1.0 2.0 0.00 0.43 0.43 95 1013.3
20260509210517 54 293 1.0 2.0 0.00 0.43 0.43 95 1013.3
20260509205516 54 270 1.0 3.0 0.00 0.43 0.43 95 1013.2
20260509204517 54 315 1.0 2.0 0.00 0.43 0.43 95 1013.0
20260509203517 54 315 3.0 4.0 0.00 0.43 0.43 94 1012.8
20260509202537 54 315 2.0 3.0 0.00 0.43 0.43 94 1012.7
20260509201516 54 248 1.0 2.0 0.00 0.43 0.43 94 1012.6
20260509200516 55 225 2.0 3.0 0.00 0.43 0.43 94 1012.4
20260509195516 55 248 2.0 3.0 0.00 0.43 0.43 94 1012.0
20260509194517 55 225 2.0 3.0 0.00 0.43 0.43 94 1011.8
20260509193516 56 225 1.0 3.0 0.00 0.43 0.43 94 1011.5
20260509192516 56 270 2.0 3.0 0.00 0.43 0.43 94 1011.4
20260509191536 56 293 2.0 4.0 0.00 0.43 0.43 94 1011.4
20260509190517 56 293 2.0 4.0 0.00 0.43 0.43 94 1011.3
20260509185516 56 293 3.0 4.0 0.00 0.43 0.43 93 1011.3
20260509184517 56 270 3.0 7.0 0.00 0.43 0.43 94 1011.2
20260509183516 56 293 3.0 7.0 0.00 0.43 0.43 94 1011.1
20260509182516 56 293 3.0 6.0 0.00 0.43 0.43 94 1010.9
20260509181516 56 293 2.0 4.0 0.01 0.43 0.43 94 1010.8
20260509180537 56 338 1.0 2.0 0.01 0.43 0.43 94 1010.5
20260509175518 56 248 4.0 6.0 0.02 0.43 0.43 94 1010.4
20260509174519 57 248 3.0 5.0 0.02 0.43 0.43 94 1010.4
20260509173518 57 248 1.0 2.0 0.04 0.43 0.43 94 1010.2
20260509172519 56 248 1.0 3.0 0.06 0.43 0.43 94 1010.2
20260509171519 56 270 2.0 3.0 0.09 0.42 0.42 93 1010.4
20260509170518 57 23 1.0 3.0 0.13 0.42 0.42 93 1010.4
20260509165538 57 45 2.0 3.0 0.17 0.41 0.41 93 1010.7
20260509164518 57 23 2.0 3.0 0.24 0.40 0.40 93 1011.2
20260509163518 56 45 1.0 2.0 0.29 0.39 0.39 92 1011.6
20260509162518 57 23 2.0 3.0 0.30 0.36 0.36 92 1012.0
20260509161518 57 113 2.0 3.0 0.28 0.33 0.33 92 1012.2
20260509160538 57 135 1.0 3.0 0.25 0.28 0.28 91 1012.4
20260509155518 57 180 2.0 6.0 0.21 0.24 0.24 91 1012.6
20260509154518 58 180 6.0 9.0 0.14 0.17 0.17 90 1012.6
20260509153518 58 180 7.0 12.0 0.07 0.09 0.09 90 1012.8
20260509152518 59 203 7.0 13.0 0.04 0.06 0.06 89 1012.6
20260509151518 59 203 5.0 10.0 0.03 0.05 0.05 89 1012.2
20260509150519 60 180 6.0 9.0 0.02 0.03 0.03 87 1011.2
20260509145518 60 180 6.0 12.0 0.02 0.02 0.02 85 1010.7
20260509144517 61 135 3.0 7.0 0.02 0.02 0.02 85 1010.4
20260509143518 61 68 2.0 4.0 0.02 0.02 0.02 85 1010.3
20260509142519 61 135 2.0 4.0 0.02 0.02 0.02 87 1010.5
20260509141538 61 113 2.0 5.0 0.02 0.02 0.02 86 1010.6
20260509140538 61 135 4.0 7.0 0.02 0.02 0.02 84 1010.9
20260509135518 61 135 5.0 9.0 0.01 0.01 0.01 82 1011.2
20260509134518 62 158 4.0 8.0 0.00 0.00 0.00 80 1011.5
20260509133518 62 180 4.0 7.0 0.00 0.00 0.00 77 1011.7
20260509132517 63 158 7.0 10.0 0.00 0.00 0.00 74 1011.7
20260509131517 63 158 5.0 8.0 0.00 0.00 0.00 72 1012.0
20260509130518 64 180 5.0 8.0 0.00 0.00 0.00 72 1012.3
20260509125538 64 135 4.0 8.0 0.00 0.00 0.00 70 1012.0
20260509124517 64 135 2.0 6.0 0.00 0.00 0.00 70 1011.9
20260509123517 64 68 3.0 8.0 0.00 0.00 0.00 70 1011.7
20260509122517 64 135 4.0 9.0 0.00 0.00 0.00 71 1011.5
20260509121620 64 113 8.0 13.0 0.00 0.00 0.00 72 1011.9
20260509120517 63 135 4.0 9.0 0.00 0.00 0.00 76 1012.2
20260509115537 63 135 8.0 14.0 0.00 0.00 0.00 77 1012.4
20260509114518 63 135 5.0 12.0 0.00 0.00 0.00 79 1012.7
20260509113537 63 135 7.0 14.0 0.00 0.00 0.00 79 1013.0
20260509112538 63 135 8.0 15.0 0.00 0.00 0.00 77 1013.1
20260509111517 64 135 6.0 9.0 0.00 0.00 0.00 74 1012.9
20260509110517 65 135 6.0 11.0 0.00 0.00 0.00 73 1012.9
20260509105517 65 135 4.0 10.0 0.00 0.00 0.00 73 1012.7
20260509104517 64 135 4.0 8.0 0.00 0.00 0.00 73 1012.9
20260509103618 64 135 7.0 10.0 0.00 0.00 0.00 73 1013.1
20260509102518 65 180 5.0 10.0 0.00 0.00 0.00 73 1013.2
20260509101517 64 135 1.0 4.0 0.00 0.00 0.00 74 1013.3
20260509100517 64 90 2.0 4.0 0.00 0.00 0.00 74 1013.2
20260509095537 64 90 2.0 7.0 0.00 0.00 0.00 74 1013.1
20260509094518 64 158 4.0 7.0 0.00 0.00 0.00 75 1013.2
20260509093517 64 90 4.0 8.0 0.00 0.00 0.00 74 1012.9
20260509092517 65 158 4.0 8.0 0.00 0.00 0.00 73 1013.0
20260509091517 65 135 2.0 7.0 0.00 0.00 0.00 73 1013.0
20260509090517 65 315 1.0 3.0 0.00 0.00 0.00 74 1012.9
20260509085517 63 225 1.0 2.0 0.00 0.00 0.00 75 1012.9
20260509084518 63 158 1.0 4.0 0.00 0.00 0.00 75 1012.9
20260509083518 63 23 2.0 4.0 0.00 0.00 0.00 76 1012.8
20260509082518 62 315 1.0 3.0 0.00 0.00 0.00 76 1013.0
20260509081538 63 23 3.0 5.0 0.00 0.00 0.00 75 1013.0
20260509080538 62 23 2.0 5.0 0.00 0.00 0.00 76 1013.1
20260509075517 61 0 1.0 3.0 0.00 0.00 0.00 78 1012.7